Location: Unspecified
(0.0000°N, 0.0000°E)
Time: 11:24:37
(UTC+00:00)

A-11 Canister half - Pass Details

Date: 21 November 2019
Orbit: 1515 x 1685 km, 47.2° (Epoch: 08 December)

Event Time Altitude Azimuth Distance (km) Brightness Sun altitude
Rises 00:04:40 0° 348° (NNW) 4,885 - -69.7°
Reaches altitude 10° 00:09:23 10° 7° (N) 3,873 - -69.4°
Maximum altitude 00:15:27 18° 46° (NE) 3,251 - -68.9°
Drops below altitude 10° 00:21:23 10° 84° (E) 3,795 - -68.4°
Sets 00:25:51 0° 102° (ESE) 4,750 - -67.9°
